Voltar ao catálogo

STARLINK-33634

AtivoComunicaçõesVLEO
NORAD 63377·PAYLOAD·🇺🇸 United States

Lançado Mar 26, 2025 de Vandenberg Space Force Base

Loading…

Próximas Passagens (próximas 24 horas)

TLE

AtualizadoSource: CelesTrak SupGP

Época: Sep 15, 2026, 03:14 UTC

1 63377C 25063Q   26258.13520833 -.00042792  00000+0 -12641-2 0  2589
2 63377  53.1565 250.4561 0001238  94.0959 255.1655 15.34417920    12

Acompanhe STARLINK-33634 em tempo real com AllMySat

Download on the App Store